Time,TemperatureF,DewpointF,PressureIn,WindDirection,WindDirectionDegrees,WindSpeedMPH,WindSpeedGustMPH,Humidity,HourlyPrecipIn,Conditions,Clouds,dailyrainin,SoftwareType,DateUTC
2013-09-09 00:05:00,57.5,57.5,29.94,SE,138,0.0,0.0,100,0.00,,,0.00,Wunderground v.1.15,2013-09-09 07:05:00,
2013-09-09 00:35:00,57.8,57.8,29.94,SE,138,0.0,0.0,100,0.00,,,0.00,Wunderground v.1.15,2013-09-09 07:35:00,
2013-09-09 01:05:00,58.1,58.1,29.94,SE,138,0.0,0.0,100,0.00,,,0.00,Wunderground v.1.15,2013-09-09 08:05:00,
2013-09-09 01:35:00,58.1,58.1,29.94,SE,138,0.0,0.0,100,0.00,,,0.00,Wunderground v.1.15,2013-09-09 08:35:00,
2013-09-09 02:05:00,58.3,58.3,29.94,SE,138,0.0,0.0,100,0.00,,,0.00,Wunderground v.1.15,2013-09-09 09:05:00,
2013-09-09 02:35:00,58.3,58.3,29.93,SE,138,0.0,0.0,100,0.00,,,0.00,Wunderground v.1.15,2013-09-09 09:35:00,
2013-09-09 03:05:00,58.3,58.3,29.93,SE,138,0.0,0.0,100,0.00,,,0.00,Wunderground v.1.15,2013-09-09 10:05:00,
2013-09-09 03:35:00,57.8,57.8,29.93,SE,138,0.0,0.0,100,0.00,,,0.00,Wunderground v.1.15,2013-09-09 10:35:00,
2013-09-09 04:05:00,57.6,57.6,29.93,SE,138,0.0,0.0,100,0.00,,,0.00,Wunderground v.1.15,2013-09-09 11:05:00,
2013-09-09 04:35:00,57.6,57.6,29.93,SE,138,0.0,0.0,100,0.00,,,0.00,Wunderground v.1.15,2013-09-09 11:35:00,
2013-09-09 05:05:00,57.6,57.6,29.93,SE,138,0.0,0.0,100,0.00,,,0.00,Wunderground v.1.15,2013-09-09 12:05:00,
2013-09-09 05:35:00,57.5,57.5,29.94,SE,138,0.0,0.0,100,0.00,,,0.00,Wunderground v.1.15,2013-09-09 12:35:00,
2013-09-09 06:05:00,57.3,57.3,29.94,SE,138,0.0,0.0,100,0.00,,,0.00,Wunderground v.1.15,2013-09-09 13:05:00,
2013-09-09 06:35:00,57.2,57.2,29.94,SE,138,0.0,0.0,100,0.00,,,0.00,Wunderground v.1.15,2013-09-09 13:35:00,
2013-09-09 07:05:00,57.2,57.2,29.94,SE,138,0.0,0.0,100,0.00,,,0.00,Wunderground v.1.15,2013-09-09 14:05:00,
2013-09-09 07:35:00,57.5,57.5,29.94,SE,138,0.0,0.0,100,0.00,,,0.00,Wunderground v.1.15,2013-09-09 14:35:00,
2013-09-09 08:05:00,58.0,58.0,29.94,SE,138,0.0,0.0,100,0.00,,,0.00,Wunderground v.1.15,2013-09-09 15:05:00,
2013-09-09 08:35:00,58.7,58.7,29.95,SE,138,0.0,0.0,100,0.00,,,0.00,Wunderground v.1.15,2013-09-09 15:35:00,
2013-09-09 09:05:00,58.6,58.6,29.95,SE,140,0.0,0.0,100,0.00,,,0.00,Wunderground v.1.15,2013-09-09 16:05:00,
2013-09-09 09:35:00,59.6,59.6,29.95,SE,140,0.0,0.0,100,0.00,,,0.00,Wunderground v.1.15,2013-09-09 16:35:00,
2013-09-09 10:05:00,62.7,62.7,29.94,SE,138,0.0,0.0,100,0.00,,,0.00,Wunderground v.1.15,2013-09-09 17:05:00,
2013-09-09 10:35:00,65.8,65.8,29.94,SE,138,0.0,0.0,100,0.00,,,0.00,Wunderground v.1.15,2013-09-09 17:35:00,
2013-09-09 11:05:00,68.4,66.9,29.93,SE,138,0.0,0.0,95,0.00,,,0.00,Wunderground v.1.15,2013-09-09 18:05:00,
2013-09-09 11:35:00,70.9,67.5,29.93,SE,138,0.0,0.0,89,0.00,,,0.00,Wunderground v.1.15,2013-09-09 18:35:00,
2013-09-09 12:05:00,72.8,69.0,29.92,SE,138,0.0,0.0,88,0.00,,,0.00,Wunderground v.1.15,2013-09-09 19:05:00,
2013-09-09 12:35:00,72.7,68.3,29.91,SE,138,0.0,0.0,86,0.00,,,0.00,Wunderground v.1.15,2013-09-09 19:35:00,
2013-09-09 13:05:00,72.7,67.9,29.91,SE,138,0.0,0.0,85,0.00,,,0.00,Wunderground v.1.15,2013-09-09 20:05:00,
2013-09-09 13:35:00,72.1,67.7,29.90,SE,140,0.0,0.0,86,0.00,,,0.00,Wunderground v.1.15,2013-09-09 20:35:00,
2013-09-09 14:05:00,73.5,68.0,29.89,SE,140,0.0,0.0,83,0.00,,,0.00,Wunderground v.1.15,2013-09-09 21:05:00,
2013-09-09 14:35:00,75.6,69.0,29.88,ESE,123,0.0,0.0,80,0.00,,,0.00,Wunderground v.1.15,2013-09-09 21:35:00,
2013-09-09 15:05:00,76.1,68.4,29.86,SE,138,0.0,0.0,77,0.00,,,0.00,Wunderground v.1.15,2013-09-09 22:05:00,
2013-09-09 15:35:00,75.4,67.7,29.86,South,182,0.0,0.0,77,0.00,,,0.00,Wunderground v.1.15,2013-09-09 22:35:00,
2013-09-09 16:05:00,74.4,67.5,29.85,SE,144,0.0,0.0,79,0.00,,,0.00,Wunderground v.1.15,2013-09-09 23:05:00,
2013-09-09 16:35:00,71.6,66.5,29.85,South,178,0.0,0.0,84,0.00,,,0.00,Wunderground v.1.15,2013-09-09 23:35:00,
2013-09-09 17:05:00,69.3,65.9,29.84,SSE,158,0.0,0.0,89,0.00,,,0.00,Wunderground v.1.15,2013-09-10 00:05:00,
2013-09-09 17:35:00,67.4,65.0,29.84,SSE,154,0.0,0.0,92,0.00,,,0.00,Wunderground v.1.15,2013-09-10 00:35:00,
2013-09-09 18:05:00,66.8,64.7,29.84,East,83,0.0,0.0,93,0.00,,,0.00,Wunderground v.1.15,2013-09-10 01:05:00,
2013-09-09 18:35:00,65.3,63.8,29.83,East,86,0.0,0.0,95,0.00,,,0.00,Wunderground v.1.15,2013-09-10 01:35:00,
2013-09-09 19:05:00,63.9,63.3,29.83,SE,143,0.0,0.0,98,0.00,,,0.00,Wunderground v.1.15,2013-09-10 02:05:00,
2013-09-09 19:35:00,62.4,62.4,29.83,South,171,0.0,0.0,100,0.00,,,0.00,Wunderground v.1.15,2013-09-10 02:35:00,
2013-09-09 20:05:00,61.2,61.2,29.83,SE,124,0.0,0.0,100,0.00,,,0.00,Wunderground v.1.15,2013-09-10 03:05:00,
2013-09-09 20:35:00,60.5,60.5,29.83,SSE,152,0.0,0.0,100,0.00,,,0.00,Wunderground v.1.15,2013-09-10 03:35:00,
2013-09-09 21:05:00,59.9,59.9,29.83,SSE,152,0.0,0.0,100,0.00,,,0.00,Wunderground v.1.15,2013-09-10 04:05:00,
2013-09-09 21:35:00,59.3,59.3,29.83,SSE,152,0.0,0.0,100,0.00,,,0.00,Wunderground v.1.15,2013-09-10 04:35:00,
2013-09-09 22:05:00,58.7,58.7,29.83,SSE,152,0.0,0.0,100,0.00,,,0.00,Wunderground v.1.15,2013-09-10 05:05:00,
2013-09-09 22:35:00,58.1,58.1,29.83,SSE,152,0.0,0.0,100,0.00,,,0.00,Wunderground v.1.15,2013-09-10 05:35:00,
2013-09-09 23:05:00,57.5,57.5,29.83,SSE,152,0.0,0.0,100,0.00,,,0.00,Wunderground v.1.15,2013-09-10 06:05:00,
2013-09-09 23:35:00,57.0,57.0,29.83,SSE,152,0.0,0.0,100,0.00,,,0.00,Wunderground v.1.15,2013-09-10 06:35:00,